星链-4495 (STARLINK-4495 )

导读

STARLINK-4495是美国SpaceX公司星链星座的第4组第16批组网卫星,于2022年8月19日由猎鹰9火箭发射。它属于低轨互联网通信卫星,重约297kg,运行在高度约548公里的近地轨道,搭载Ku/Ka波段通信载荷,可提供全球宽带互联网接入服务。作为星链星座量产卫星之一,它具备自主避撞能力,寿命末期会主动离轨再入大气层焚毁,避免产生太空垃圾。

基本信息
目录编号:
53552
目录名称:
STARLINK-4495
国际标识:
2022-101AB
轨道中心:
EARTH
卫星名称:
星链-4495
卫星全名:
星链-4495 (STARLINK-4495 )
卫星状态:
在轨 (已飞行1396 天)
发射日期:
2022-08-19 UTC
国别 :
美国 (US)
星等 :
--
轨道信息
数据来源 国际轨道数据 AOE轨道数据
星历时间 2026-06-15T02:35:02+0800
12小时前
查看轨道信息
2026-06-15T08:00:00+0800
7小时前
查看轨道信息
半长轴 6917.892km 6917.896km
偏心率 0.0001347 0.0001248
轨道倾角 53.160° 53.159°
近地点辐角 88.143° 88.629°
升交点赤经 348.209° 347.196°
平近点角 271.971° 57.958°
近地点 538.823km 538.895km
远地点 540.687km 540.623km
周期 95.438分钟 95.438分钟
每日圈数 15.088363 15.088351
详细信息
固有亮度:
5
最大亮度:
2.5
卫星平台:
Starlink v1.5
覆盖范围:
全球
运营商:
太空探索技术公司
运营商所在国:
美国
制造商(研发单位):
太空探索技术公司
制造商所在国:
美国
使用方式:
暂无
卫星简介
星链(Starlink)计划是由太空探索技术公司(SpaceX)提出的一个巨型低轨卫星互联网星座项目,计划在2019年至2024年间在太空搭建由约1.2万颗卫星组成的“星链”网络,其中1584颗将部署在地球上空550千米处的近地轨道,并从2020年开始工作。该卫星仍在工作。
2D轨道图
3D轨道图
轨道高度分析图
轨道倾角分析图
轨道综合分析图
查看轨道综合分析图